Paris / Charles De Gaulle, France

10:11 PM CET on December 12, 2017 (GMT +0100)
Charles de Gaulle

Weather History for LFPG - July, 2013

Change the Weather History Date:

Friday, July 5, 2013

  Actual Average Record
Temperature  
Mean Temperature 67 °F -  
Max Temperature 75 °F 74 °F 88 °F (2017)
Min Temperature 59 °F 56 °F 51 °F (1997)
Cooling Degree Days 2    
Growing Degree Days 17 (Base 50)    
Moisture  
Dew Point 57 °F    
Average Humidity 75    
Maximum Humidity 94    
Minimum Humidity 47    
Precipitation  
Precipitation 0.00 in - - ()
Sea Level Pressure  
Sea Level Pressure 30.36 in    
Wind  
Wind Speed 4 mph ()    
Max Wind Speed 12 mph    
Max Gust Speed -    
Visibility 5.5 miles    
Events      
Averages and records for this station are not official NWS values.
T = Trace of Precipitation, MM = Missing Value Source: Averaged Metar Reports

Daily Weather History Graph

Daily Weather History Graph

Search for Another Location

Airport or City:

Trip Planner

Search our weather history database for the weather conditions in past years. The results will help you decide how hot, cold, wet, or windy it might be!

Date:

Astronomy

Jul. 05, 2013 Rise Set
Actual Time 5:52 AM CEST 9:56 PM CEST
Civil Twilight 5:10 AM CEST 10:38 PM CEST
Nautical Twilight 4:11 AM CEST 11:36 PM CEST
Astronomical Twilight 2:18 AM CEST 1:25 AM CEST
Moon 3:46 AM CEST (7/5) 7:33 PM CEST (7/5)
Length of Visible Light 17h 27m
Length of Day
16h 03m
Waning Crescent, 7% of the Moon is Illuminated
Jul 5
Waning Crescent
Jul 8
New
Jul 16
First Quarter
Jul 22
Full
Jul 29
Last Quarter

Hourly Weather History & Observations

Time (CEST) Temp. Dew Point Humidity Pressure Visibility Wind Dir Wind Speed Gust Speed Precip Events Conditions
12:00 AM 64.4 °F 59.0 °F 83% 30.30 in 6.2 mi Variable 3.5 mph - N/A   Scattered Clouds
12:30 AM 64.4 °F 59.0 °F 83% 30.30 in 6.2 mi South 3.5 mph - N/A   Partly Cloudy
1:00 AM 62.6 °F 59.0 °F 88% 30.30 in - South 2.3 mph - N/A   Clear
1:30 AM 62.6 °F 57.2 °F 82% 30.33 in 6.2 mi Calm Calm - N/A   Partly Cloudy
2:00 AM 62.6 °F 59.0 °F 88% 30.33 in 6.2 mi Variable 2.3 mph - N/A   Mostly Cloudy
2:30 AM 62.6 °F 59.0 °F 88% 30.33 in 6.2 mi North 2.3 mph - N/A   Mostly Cloudy
3:00 AM 62.6 °F 59.0 °F 88% 30.33 in 6.2 mi Calm Calm - N/A   Mostly Cloudy
3:30 AM 62.6 °F 59.0 °F 88% 30.33 in 6.2 mi Calm Calm - N/A   Mostly Cloudy
4:00 AM 60.8 °F 59.0 °F 94% 30.33 in 6.2 mi NNW 3.5 mph - N/A   Mostly Cloudy
4:30 AM 60.8 °F 59.0 °F 94% 30.33 in 6.2 mi North 2.3 mph - N/A   Mostly Cloudy
5:00 AM 60.8 °F 57.2 °F 88% 30.33 in 6.2 mi Variable 2.3 mph - N/A   Mostly Cloudy
5:30 AM 60.8 °F 57.2 °F 88% 30.33 in 3.7 mi NNW 4.6 mph - N/A   Mostly Cloudy
6:00 AM 60.8 °F 57.2 °F 88% 30.33 in 3.1 mi NW 5.8 mph - N/A   Mostly Cloudy
6:30 AM 59.0 °F 57.2 °F 94% 30.36 in 3.1 mi NW 4.6 mph - N/A   Mostly Cloudy
7:00 AM 60.8 °F 57.2 °F 88% 30.36 in 3.1 mi NW 4.6 mph - N/A   Mostly Cloudy
7:30 AM 60.8 °F 57.2 °F 88% 30.36 in 3.1 mi NNW 5.8 mph - N/A   Mostly Cloudy
8:00 AM 59.0 °F 57.2 °F 94% 30.36 in 1.6 mi NNW 6.9 mph - N/A   Mostly Cloudy
8:30 AM 59.0 °F 57.2 °F 94% 30.39 in 1.1 mi NNW 6.9 mph - N/A   Mostly Cloudy
9:00 AM 59.0 °F 57.2 °F 94% 30.39 in 5.0 mi NNW 5.8 mph - N/A   Mostly Cloudy
9:30 AM 60.8 °F 59.0 °F 94% 30.39 in 6.2 mi NNW 4.6 mph - N/A   Mostly Cloudy
10:00 AM 62.6 °F 59.0 °F 88% 30.39 in 6.2 mi NNW 5.8 mph - N/A   Mostly Cloudy
10:30 AM 62.6 °F 59.0 °F 88% 30.39 in 6.2 mi WNW 6.9 mph - N/A   Mostly Cloudy
11:00 AM 64.4 °F 57.2 °F 77% 30.39 in 6.2 mi WNW 6.9 mph - N/A   Mostly Cloudy
11:30 AM 64.4 °F 57.2 °F 77% 30.39 in 6.2 mi NW 5.8 mph - N/A   Mostly Cloudy
12:00 PM 66.2 °F 57.2 °F 73% 30.39 in 6.2 mi West 5.8 mph - N/A   Scattered Clouds
12:30 PM 68.0 °F 57.2 °F 68% 30.39 in 6.2 mi NW 4.6 mph - N/A   Partly Cloudy
1:00 PM 71.6 °F 57.2 °F 60% 30.39 in 6.2 mi WNW 5.8 mph - N/A   Partly Cloudy
1:30 PM 71.6 °F 55.4 °F 57% 30.39 in 6.2 mi NNW 4.6 mph - N/A   Partly Cloudy
2:00 PM 71.6 °F 53.6 °F 53% 30.39 in 6.2 mi NNW 4.6 mph - N/A   Partly Cloudy
2:30 PM 71.6 °F 53.6 °F 53% 30.39 in 6.2 mi NW 6.9 mph - N/A   Partly Cloudy
3:00 PM 73.4 °F 51.8 °F 47% 30.39 in 6.2 mi Variable 5.8 mph - N/A   Partly Cloudy
3:30 PM 73.4 °F 53.6 °F 50% 30.39 in 6.2 mi WNW 5.8 mph - N/A   Partly Cloudy
4:00 PM 75.2 °F 53.6 °F 47% 30.36 in 6.2 mi Variable 5.8 mph - N/A   Partly Cloudy
4:30 PM 75.2 °F 53.6 °F 47% 30.36 in 6.2 mi NNE 6.9 mph - N/A   Partly Cloudy
5:00 PM 73.4 °F 55.4 °F 53% 30.36 in 6.2 mi North 6.9 mph - N/A   Partly Cloudy
5:30 PM 73.4 °F 55.4 °F 53% 30.36 in 6.2 mi NNE 6.9 mph - N/A   Partly Cloudy
6:00 PM 73.4 °F 55.4 °F 53% 30.36 in 6.2 mi NE 9.2 mph - N/A   Partly Cloudy
6:30 PM 73.4 °F 55.4 °F 53% 30.36 in 6.2 mi North 9.2 mph - N/A   Scattered Clouds
7:00 PM 73.4 °F 53.6 °F 50% 30.36 in 6.2 mi NNE 9.2 mph - N/A   Scattered Clouds
7:30 PM 73.4 °F 59.0 °F 61% 30.36 in 6.2 mi North 11.5 mph - N/A   Scattered Clouds
8:00 PM 69.8 °F 59.0 °F 68% 30.36 in - North 11.5 mph - N/A   Clear
8:30 PM 69.8 °F 59.0 °F 68% 30.36 in - NE 10.4 mph - N/A   Clear
9:00 PM 68.0 °F 59.0 °F 73% 30.36 in - NNE 10.4 mph - N/A   Clear
9:30 PM 66.2 °F 57.2 °F 73% 30.36 in - NNE 9.2 mph - N/A   Clear
10:00 PM 64.4 °F 57.2 °F 77% 30.39 in - NE 8.1 mph - N/A   Clear
10:30 PM 62.6 °F 57.2 °F 82% 30.39 in - NNE 6.9 mph - N/A   Clear
11:00 PM 62.6 °F 57.2 °F 82% 30.39 in - NNE 5.8 mph - N/A   Clear
11:30 PM 60.8 °F 57.2 °F 88% 30.39 in - NNE 5.8 mph - N/A   Clear